Location: Bannatyne
(13.0833°N, 59.5333°W)
Time: 07:24:41
(UTC+00:00)

Explorer 7 - Pass Details

Date: 01 February 2020
Orbit: 485 x 679 km, 50.3° (Epoch: 21 February)

Event Time Altitude Azimuth Distance (km) Brightness Sun altitude
Rises 21:11:08 0° 213° (SSW) 2,850 11.4 10.2°
Reaches altitude 10° 21:13:30 10° 211° (SSW) 1,913 10.5 9.6°
Maximum altitude 21:17:50 69° 127° (SE) 603 7.1 8.7°
Drops below altitude 10° 21:21:54 10° 45° (NE) 1,792 8.9 7.7°
Sets 21:24:03 0° 42° (NE) 2,652 9.8 7.2°
